sat.trackr.live / text

‹ back to catalog

STARLINK-6340

NORAD 57361 · 2023-099AK

PAYLOAD ACTIVE UNKNOWN

§ Identity

Operator
Country
US
Launch date
2023-07-16
Launch site
AFETR
Launch vehicle
Mass (kg)
RCS (m²)

Purposes: comms

External: N2YO · Heavens-Above · Gunter

§ Orbital elements

Epoch: 2026-05-25T02:45:36.699840Z

Period
94.27 min
Inclination
43.0017°
Eccentricity
0.0001105
Mean motion
15.27575819 rev/d
Perigee alt
482.3 km
Apogee alt
483.8 km
Semi-major
6,861.2 km
B*
7.6323e-6
RAAN
170.4015°
Arg perigee
294.2113°
Mean anomaly
65.8623°
Rev number
15,788

§ Raw data

STARLINK-63401 57361U 23099AK  26145.11500810 -.00000052  00000+0  76323-5 0  99922 57361  43.0017 170.4015 0001105 294.2113  65.8623 15.27575819157885

JSON: /api/v1/satellites/57361 · /tle

For live sub-satellite position, see the globe view (requires WebGL).

§ Visibility from observer

Set your observer location to see the next 7 days of passes ≥ 10°. The values pass through the URL so the page stays shareable.

No JS? Fill the form by hand. The geolocation button needs JavaScript.